KINEIS-5E

Last updated on Thu Sep 24 2026 00:03:12 GMT+0000 (Coordinated Universal Time)

1 62083U 24219C 26266.58118250 .00000368 00000+0 65856-4 0 9999 2 62083 97.9116 62.8261 0005373 320.5946 39.4871 14.72295422 98249
UTC large
Height (km)
Speed (km/s)
/
Latitude / Longitude
Inclination (degrees)
Orbital Period (minutes)
Azimuth
Elevation
Range (km)
Doppler Factor

Next 0 passes for location: London (51.5072 / 0.1276)

No passes found over London.
KINEIS-5E